Location: Rounton
(54.4000°N, 1.3500°W)
Time: 17:12:46
(UTC+00:00)

Tiros 1 despin weight - Pass Details

Date: 02 December 2021
Orbit: 592 x 641 km, 48.2° (Epoch: 21 January)

Event Time Altitude Azimuth Distance (km) Brightness Sun altitude
Rises 16:30:17 0° 255° (WSW) 2,824 ? -6.3°
Reaches altitude 10° 16:32:41 10° 247° (WSW) 1,922 ? -6.6°
Maximum altitude 16:36:44 37° 180° (S) 925 ? -7.2°
Drops below altitude 10° 16:40:48 10° 113° (ESE) 1,927 ? -7.7°
Enters shadow 16:42:47 - 106° (ESE) 2,667 ? -7.9°
